Location: Cabeza Gorda
(40.0667°N, 4.9667°W)
Time: 20:17:10
(UTC+00:00)

Cosmos 1140 Rocket - Pass Details

Date: 15 January 2026
Orbit: 739 x 763 km, 74.1° (Epoch: 10 February)

Event Time Altitude Azimuth Distance (km) Brightness Sun altitude
Rises 06:31:44 0° 209° (SSW) 3,158 6.6 -12.9°
Reaches altitude 10° 06:34:07 10° 214° (SW) 2,240 5.7 -12.5°
Maximum altitude 06:39:05 55° 292° (WNW) 890 3.5 -11.6°
Drops below altitude 10° 06:44:07 10° 10° (N) 2,263 5.9 -10.7°
Sets 06:46:32 0° 15° (NNE) 3,193 6.7 -10.2°
